Flag for USA Past Weather in Bryan – College Station, Texas, USA — Yesterday and Last 2 Weeks

Now
80 °F

Sunny.


Feels Like: 82 °F
Forecast: 69 / 79 °F
Wind: 6 mph from North

Location: Easterwood Field

Current Time: Sep 27, 2016 at 5:27:16 PM

Latest Report: Sep 27, 2016 at 4:53 PM


Visibility: 10 mi

Pressure: 29.99 "Hg

Humidity: 56%

Dew Point: 63 °F

Location of Bryan – College StationLocation

Past Weather in Bryan – College Station — Graph

°F

Bryan – College Station Temperature Yesterday

Maximum temperature yesterday: 76 °F (at 1:53 PM)
Minimum temperature yesterday: 69 °F (at 11:53 PM)
Average temperature yesterday: 73 °F

High & Low Weather Summary for the Past Weeks

 TemperatureHumidityPressure
High96 °F (Sep 20, 1:53 PM)100% (Sep 19, 7:53 AM)30.11 "Hg (Sep 19, 7:53 AM)
Low67 °F (Sep 27, 5:53 AM)38% (Sep 21, 3:53 PM)29.85 "Hg (Sep 16, 4:53 PM)
Average82 °F76%29.98 "Hg
* Reported Sep 12 3:53 PM — Sep 27 3:53 PM, Bryan – College Station, Weather by CustomWeather, © 2016

Note: Actual official high and low records may vary slightly from our data, if they occured in-between our weather recording intervals... More about our weather records

Advertising

Bryan – College Station Weather History for the Previous 24 Hours

Scroll right to see more
 ConditionsComfort  
Time TempWeatherWind HumidityBarometerVisibility
3:53 PM
Tue, Sep 27
79 °FSunny.8 mph58%30.00 "Hg10 mi
2:53 PM81 °FSunny.10 mph58%30.00 "Hg10 mi
1:53 PM80 °FSunny.8 mph58%30.02 "Hg10 mi
12:53 PM78 °FSunny.6 mph62%30.05 "Hg10 mi
11:53 AM78 °FOvercast.13 mph62%30.06 "Hg10 mi
10:53 AM76 °FSunny.6 mph64%30.08 "Hg10 mi
9:53 AM74 °FSunny.9 mph69%30.06 "Hg10 mi
8:53 AM71 °FSunny.9 mph76%30.06 "Hg10 mi
7:53 AM67 °FSunny.7 mph93%30.05 "Hg10 mi
6:53 AM67 °FPassing clouds.8 mph93%30.05 "Hg10 mi
5:53 AM67 °FPassing clouds.6 mph93%30.04 "Hg10 mi
4:53 AM68 °FOvercast.5 mph90%30.05 "Hg10 mi
3:53 AM68 °FOvercast.7 mph90%30.06 "Hg10 mi
2:53 AM68 °FOvercast.7 mph90%30.06 "Hg10 mi
2:02 AM68 °FOvercast.6 mph90%30.07 "Hg10 mi
1:53 AM68 °FMostly cloudy.6 mph90%30.05 "Hg10 mi
1:04 AM69 °FMostly cloudy.9 mph87%30.07 "Hg10 mi
12:53 AM69 °FOvercast.9 mph90%30.06 "Hg10 mi
11:53 PM
Mon, Sep 26
69 °FOvercast.10 mph87%30.07 "Hg10 mi
10:53 PM70 °FOvercast.8 mph84%30.06 "Hg10 mi
9:53 PM70 °FOvercast.9 mph87%30.07 "Hg10 mi
8:53 PM71 °FOvercast.10 mph87%30.07 "Hg10 mi
7:53 PM72 °FOvercast.10 mph87%30.04 "Hg10 mi
6:53 PM73 °FFog.9 mph88%30.04 "Hg6 mi
5:53 PM73 °FFog.10 mph90%30.02 "Hg5 mi
Weather by CustomWeather, © 2016

See weather overviewHow to use our weather pages